Location: Dannhausen
(51.8650°N, 10.1026°E)
Time: 22:29:24
(UTC+00:00)

RESURS DK-1 - Pass Details

Date: 09 April 2020
Orbit: 557 x 561 km, 69.9° (Epoch: 25 May)

Event Time Altitude Azimuth Distance (km) Brightness Sun altitude
Rises 19:05:25 0° 332° (NNW) 2,764 6.9 -9.2°
Reaches altitude 10° 19:07:57 10° 346° (NNW) 1,864 5.6 -9.6°
Maximum altitude 19:11:25 25° 43° (NE) 1,158 3.8 -10.0°
Enters shadow 19:14:21 13° 94° (E) 1,687 4.2 -10.4°
